Time,TemperatureF,DewpointF,PressureIn,WindDirection,WindDirectionDegrees,WindSpeedMPH,WindSpeedGustMPH,Humidity,HourlyPrecipIn,Conditions,Clouds,dailyrainin,SoftwareType,DateUTC
2013-08-23 00:03:00,69.1,43.1,30.06,NE,45,0.0,0.0,39,0.00,CLR,CLR,0.00,WeatherDisplay:10.37,2013-08-23 04:03:00,
2013-08-23 00:18:00,70.0,43.9,30.06,North,9,0.0,2.0,39,0.00,CLR,CLR,0.00,WeatherDisplay:10.37,2013-08-23 04:18:00,
2013-08-23 00:33:00,70.2,42.7,30.06,North,2,0.0,1.0,37,0.00,CLR,CLR,0.00,WeatherDisplay:10.37,2013-08-23 04:33:00,
2013-08-23 00:48:00,69.8,40.9,30.06,North,0,0.0,0.0,35,0.00,CLR,CLR,0.00,WeatherDisplay:10.37,2013-08-23 04:48:00,
2013-08-23 01:03:00,68.9,40.1,30.06,North,0,0.0,0.0,35,0.00,CLR,CLR,0.00,WeatherDisplay:10.37,2013-08-23 05:03:00,
2013-08-23 01:18:00,68.4,40.4,30.06,North,0,0.0,0.0,36,0.00,CLR,CLR,0.00,WeatherDisplay:10.37,2013-08-23 05:18:00,
2013-08-23 01:33:00,68.0,41.4,30.06,North,0,0.0,0.0,38,0.00,CLR,CLR,0.00,WeatherDisplay:10.37,2013-08-23 05:33:00,
2013-08-23 01:48:00,68.2,45.4,30.06,NNE,22,2.0,3.0,44,0.00,CLR,CLR,0.00,WeatherDisplay:10.37,2013-08-23 05:48:00,
2013-08-23 02:03:00,68.0,43.4,30.06,NNE,29,0.0,0.0,41,0.00,CLR,CLR,0.00,WeatherDisplay:10.37,2013-08-23 06:03:00,
2013-08-23 02:18:00,68.0,45.3,30.06,NNE,22,0.0,0.0,44,0.00,CLR,CLR,0.00,WeatherDisplay:10.37,2013-08-23 06:18:00,
2013-08-23 02:33:00,68.2,46.0,30.06,NNE,22,0.0,0.0,45,0.00,CLR,CLR,0.00,WeatherDisplay:10.37,2013-08-23 06:33:00,
2013-08-23 02:48:00,68.4,48.5,30.06,NNW,334,0.0,0.0,49,0.00,CLR,CLR,0.00,WeatherDisplay:10.37,2013-08-23 06:48:00,
2013-08-23 03:03:00,69.1,47.4,30.06,North,11,0.0,1.0,46,0.00,CLR,CLR,0.00,WeatherDisplay:10.37,2013-08-23 07:03:00,
2013-08-23 03:04:00,70.2,48.4,30.08,NE,45,0.0,0.0,46,0.00,SCT,SCT,0.00,WeatherDisplay:10.37,2013-08-23 07:04:00,
2013-08-23 03:05:00,70.2,48.4,30.08,NE,45,0.0,0.0,46,0.00,SCT,SCT,0.00,WeatherDisplay:10.37,2013-08-23 07:05:00,
2013-08-23 03:06:00,70.2,48.4,30.08,NE,45,0.0,0.0,46,0.00,SCT,SCT,0.00,WeatherDisplay:10.37,2013-08-23 07:06:00,
2013-08-23 03:07:00,70.2,48.4,30.08,NE,45,0.0,0.0,46,0.00,SCT,SCT,0.00,WeatherDisplay:10.37,2013-08-23 07:07:00,
2013-08-23 03:08:00,70.2,48.4,30.08,NE,45,0.0,0.0,46,0.00,SCT,SCT,0.00,WeatherDisplay:10.37,2013-08-23 07:08:00,
2013-08-23 03:09:00,70.2,48.4,30.08,NE,45,0.0,0.0,46,0.00,SCT,SCT,0.00,WeatherDisplay:10.37,2013-08-23 07:09:00,
2013-08-23 03:10:00,70.2,48.4,30.08,NE,45,0.0,0.0,46,0.00,SCT,SCT,0.00,WeatherDisplay:10.37,2013-08-23 07:10:00,
2013-08-23 03:11:00,70.2,48.4,30.08,NE,45,0.0,0.0,46,0.00,SCT,SCT,0.00,WeatherDisplay:10.37,2013-08-23 07:11:00,
2013-08-23 03:12:00,70.2,48.4,30.08,NE,45,0.0,0.0,46,0.00,SCT,SCT,0.00,WeatherDisplay:10.37,2013-08-23 07:12:00,
2013-08-23 03:13:00,70.2,48.4,30.08,NE,45,0.0,0.0,46,0.00,SCT,SCT,0.00,WeatherDisplay:10.37,2013-08-23 07:13:00,
2013-08-23 03:14:00,70.2,48.4,30.08,NE,45,0.0,0.0,46,0.00,SCT,SCT,0.00,WeatherDisplay:10.37,2013-08-23 07:14:00,
2013-08-23 03:15:00,70.2,48.4,30.08,NE,45,0.0,0.0,46,0.00,SCT,SCT,0.00,WeatherDisplay:10.37,2013-08-23 07:15:00,
2013-08-23 03:16:00,70.2,48.4,30.08,NE,45,0.0,0.0,46,0.00,SCT,SCT,0.00,WeatherDisplay:10.37,2013-08-23 07:16:00,
2013-08-23 03:17:00,70.2,48.4,30.08,NE,45,0.0,0.0,46,0.00,SCT,SCT,0.00,WeatherDisplay:10.37,2013-08-23 07:17:00,
2013-08-23 03:18:00,70.2,48.4,30.08,NE,45,0.0,0.0,46,0.00,SCT,SCT,0.00,WeatherDisplay:10.37,2013-08-23 07:18:00,
2013-08-23 08:12:00,69.4,47.8,30.06,NE,45,2.7,0.0,46,0.00,CLR,,0.00,WeatherDisplay:10.37,2013-08-23 12:12:00,
2013-08-23 08:14:00,70.0,48.2,30.06,NE,45,0.0,0.0,46,0.00,CLR,,0.00,WeatherDisplay:10.37,2013-08-23 12:14:00,
2013-08-23 08:19:00,70.5,48.7,30.09,NE,45,0.0,0.0,46,0.00,SCT,,0.00,WeatherDisplay:10.37,2013-08-23 12:19:00,
2013-08-23 08:24:00,70.9,49.1,30.09,NE,45,0.0,0.0,46,0.00,SCT,,0.00,WeatherDisplay:10.37,2013-08-23 12:24:00,
2013-08-23 08:30:00,71.4,49.6,30.09,NW,315,0.0,0.0,46,0.00,SCT,,0.00,WeatherDisplay:10.37,2013-08-23 12:30:00,
2013-08-23 08:35:00,71.6,70.7,30.09,WSW,248,1.4,0.0,97,0.00,SCT,,0.00,WeatherDisplay:10.37,2013-08-23 12:35:00,
2013-08-23 08:40:00,71.4,70.5,30.09,SW,225,1.2,1.2,97,0.00,SCT,,0.00,WeatherDisplay:10.37,2013-08-23 12:40:00,
2013-08-23 08:45:00,71.8,70.6,30.09,SW,225,0.0,0.0,96,0.00,SCT,,0.00,WeatherDisplay:10.37,2013-08-23 12:45:00,
2013-08-23 08:50:00,72.0,70.4,30.09,SW,225,0.0,0.0,95,0.00,SCT,,0.00,WeatherDisplay:10.37,2013-08-23 12:50:00,
2013-08-23 08:55:00,72.5,70.7,30.09,SW,225,0.0,0.0,94,0.00,SCT,,0.00,WeatherDisplay:10.37,2013-08-23 12:55:00,
2013-08-23 09:01:00,72.9,70.4,30.09,SW,225,1.6,1.6,92,0.00,SCT,,0.00,WeatherDisplay:10.37,2013-08-23 13:01:00,
2013-08-23 09:06:00,73.2,70.8,30.09,SW,225,0.0,0.0,92,0.00,SCT,,0.00,WeatherDisplay:10.37,2013-08-23 13:06:00,
2013-08-23 09:11:00,73.6,70.5,30.09,NE,45,2.3,2.3,90,0.00,SCT,,0.00,WeatherDisplay:10.37,2013-08-23 13:11:00,
2013-08-23 09:16:00,73.8,70.0,30.09,East,90,1.2,0.0,88,0.00,SCT,,0.00,WeatherDisplay:10.37,2013-08-23 13:16:00,
2013-08-23 09:21:00,74.3,70.2,30.09,NW,315,1.2,0.0,87,0.00,SCT,,0.00,WeatherDisplay:10.37,2013-08-23 13:21:00,
2013-08-23 09:26:00,74.5,70.0,30.09,SW,225,0.9,0.0,86,0.00,SCT,,0.00,WeatherDisplay:10.37,2013-08-23 13:26:00,
2013-08-23 09:31:00,74.8,69.7,30.09,West,270,1.2,0.0,84,0.00,SCT,,0.00,WeatherDisplay:10.37,2013-08-23 13:31:00,
2013-08-23 09:36:00,75.0,68.8,30.06,NE,45,2.3,2.3,81,0.00,SCT,,0.00,WeatherDisplay:10.37,2013-08-23 13:36:00,
2013-08-23 09:41:00,75.4,69.1,30.06,East,90,0.0,0.0,81,0.00,SCT,,0.00,WeatherDisplay:10.37,2013-08-23 13:41:00,
2013-08-23 09:46:00,75.7,68.4,30.06,NW,315,3.5,3.5,78,0.00,SCT,,0.00,WeatherDisplay:10.37,2013-08-23 13:46:00,
2013-08-23 09:51:00,76.1,68.4,30.06,WNW,292,1.2,0.0,77,0.00,SCT,,0.00,WeatherDisplay:10.37,2013-08-23 13:51:00,
2013-08-23 09:56:00,76.3,68.5,30.06,SW,225,1.4,1.4,77,0.00,SCT,,0.00,WeatherDisplay:10.37,2013-08-23 13:56:00,
2013-08-23 10:01:00,76.6,68.5,30.06,NNE,22,2.6,2.6,76,0.00,SCT,,0.00,WeatherDisplay:10.37,2013-08-23 14:01:00,
2013-08-23 10:06:00,77.2,69.0,30.09,East,90,2.3,2.3,76,0.00,SCT,,0.00,WeatherDisplay:10.37,2013-08-23 14:06:00,
2013-08-23 10:11:00,77.5,69.4,30.09,NW,315,2.3,2.3,76,0.00,SCT,,0.00,WeatherDisplay:10.37,2013-08-23 14:11:00,
2013-08-23 10:16:00,77.9,69.7,30.09,SE,135,2.3,2.3,76,0.00,SCT,,0.00,WeatherDisplay:10.37,2013-08-23 14:16:00,
2013-08-23 10:21:00,78.8,70.2,30.12,South,180,1.4,0.0,75,0.00,SCT,,0.00,WeatherDisplay:10.37,2013-08-23 14:21:00,
2013-08-23 10:26:00,79.5,70.9,30.12,NE,45,1.2,1.2,75,0.00,SCT,,0.00,WeatherDisplay:10.37,2013-08-23 14:26:00,
2013-08-23 10:31:00,80.2,71.6,30.12,SSW,202,2.3,2.3,75,0.00,SCT,,0.00,WeatherDisplay:10.37,2013-08-23 14:31:00,
2013-08-23 10:36:00,80.4,70.6,30.09,NE,45,2.4,2.4,72,0.00,SCT,,0.00,WeatherDisplay:10.37,2013-08-23 14:36:00,
2013-08-23 10:41:00,80.8,70.9,30.09,NE,45,4.6,4.6,72,0.00,SCT,,0.00,WeatherDisplay:10.37,2013-08-23 14:41:00,
2013-08-23 10:46:00,81.1,71.3,30.09,NE,45,3.5,3.5,72,0.00,SCT,,0.00,WeatherDisplay:10.37,2013-08-23 14:46:00,
2013-08-23 10:51:00,81.5,71.6,30.12,North,0,4.6,4.6,72,0.00,SCT,,0.00,WeatherDisplay:10.37,2013-08-23 14:51:00,
2013-08-23 10:56:00,82.0,72.1,30.12,East,90,1.2,0.0,72,0.00,SCT,,0.00,WeatherDisplay:10.37,2013-08-23 14:56:00,
2013-08-23 11:01:00,82.9,72.6,30.12,North,0,1.6,1.6,71,0.00,SCT,,0.00,WeatherDisplay:10.37,2013-08-23 15:01:00,
2013-08-23 11:06:00,83.1,72.7,30.12,NE,45,2.3,2.3,71,0.00,SCT,,0.00,WeatherDisplay:10.37,2013-08-23 15:06:00,
2013-08-23 11:11:00,83.7,73.3,30.12,North,0,2.3,2.3,71,0.00,SCT,,0.00,WeatherDisplay:10.37,2013-08-23 15:11:00,
2013-08-23 11:16:00,84.2,72.5,30.12,North,0,3.5,3.5,68,0.00,SCT,,0.00,WeatherDisplay:10.37,2013-08-23 15:16:00,
2013-08-23 11:21:00,85.1,73.3,30.09,South,180,1.2,0.0,68,0.00,SCT,,0.00,WeatherDisplay:10.37,2013-08-23 15:21:00,
2013-08-23 11:26:00,85.3,73.5,30.09,South,180,1.6,1.6,68,0.00,SCT,,0.00,WeatherDisplay:10.37,2013-08-23 15:26:00,
2013-08-23 11:31:00,86.0,74.2,30.09,NE,45,2.3,0.0,68,0.00,BKN,,0.00,WeatherDisplay:10.37,2013-08-23 15:31:00,
2013-08-23 11:36:00,87.1,75.2,30.12,NE,45,0.0,0.0,68,0.00,BKN,,0.00,WeatherDisplay:10.37,2013-08-23 15:36:00,
2013-08-23 11:41:00,86.5,74.7,30.12,North,0,1.2,1.2,68,0.00,BKN,,0.00,WeatherDisplay:10.37,2013-08-23 15:41:00,
2013-08-23 11:46:00,85.6,73.9,30.12,East,90,2.3,2.3,68,0.00,BKN,,0.00,WeatherDisplay:10.37,2013-08-23 15:46:00,
2013-08-23 11:51:00,87.1,75.2,30.09,NE,45,1.2,0.0,68,0.00,BKN,,0.00,WeatherDisplay:10.37,2013-08-23 15:51:00,
2013-08-23 11:56:00,87.6,75.7,30.09,SW,225,1.2,1.2,68,0.00,BKN,,0.00,WeatherDisplay:10.37,2013-08-23 15:56:00,
2013-08-23 12:01:00,87.6,75.7,30.09,SW,225,2.3,2.3,68,0.00,BKN,,0.00,WeatherDisplay:10.37,2013-08-23 16:01:00,
2013-08-23 12:06:00,88.2,76.3,30.09,NE,45,2.4,2.4,68,0.00,BKN,,0.00,WeatherDisplay:10.37,2013-08-23 16:06:00,
2013-08-23 12:11:00,88.3,76.4,30.09,SW,225,1.2,1.2,68,0.00,BKN,,0.00,WeatherDisplay:10.37,2013-08-23 16:11:00,
2013-08-23 12:16:00,88.9,76.9,30.09,SE,135,2.3,2.3,68,0.00,BKN,,0.00,WeatherDisplay:10.37,2013-08-23 16:16:00,
2013-08-23 12:21:00,89.4,77.5,30.09,East,90,2.3,2.3,68,0.00,BKN,,0.00,WeatherDisplay:10.37,2013-08-23 16:21:00,
2013-08-23 12:26:00,89.4,77.5,30.09,SE,135,1.4,1.4,68,0.00,BKN,,0.00,WeatherDisplay:10.37,2013-08-23 16:26:00,
2013-08-23 12:31:00,88.2,76.3,30.09,NNE,22,1.2,0.0,68,0.00,BKN,,0.00,WeatherDisplay:10.37,2013-08-23 16:31:00,
2013-08-23 12:36:00,88.0,76.1,30.09,East,90,3.5,3.5,68,0.00,BKN,,0.00,WeatherDisplay:10.37,2013-08-23 16:36:00,
2013-08-23 12:41:00,89.6,77.2,30.09,NW,315,2.0,0.0,67,0.00,BKN,,0.00,WeatherDisplay:10.37,2013-08-23 16:41:00,
2013-08-23 12:46:00,90.7,78.2,30.09,East,90,3.5,3.5,67,0.00,BKN,,0.00,WeatherDisplay:10.37,2013-08-23 16:46:00,
2013-08-23 12:51:00,89.8,77.4,30.09,North,0,3.3,3.3,67,0.00,BKN,,0.00,WeatherDisplay:10.37,2013-08-23 16:51:00,
2013-08-23 12:56:00,88.9,76.9,30.09,NE,45,3.5,3.5,68,0.00,BKN,,0.00,WeatherDisplay:10.37,2013-08-23 16:56:00,
2013-08-23 13:01:00,88.3,76.4,30.09,West,270,1.2,1.2,68,0.00,BKN,,0.00,WeatherDisplay:10.37,2013-08-23 17:01:00,
2013-08-23 13:06:00,86.9,75.1,30.09,SE,135,2.2,2.2,68,0.00,BKN,,0.00,WeatherDisplay:10.37,2013-08-23 17:06:00,
2013-08-23 13:11:00,86.4,74.5,30.09,East,90,2.3,2.3,68,0.00,BKN,,0.00,WeatherDisplay:10.37,2013-08-23 17:11:00,
2013-08-23 13:16:00,86.2,74.4,30.09,NE,45,1.2,1.2,68,0.00,BKN,,0.00,WeatherDisplay:10.37,2013-08-23 17:16:00,
2013-08-23 13:21:00,87.3,75.4,30.09,NE,45,2.3,0.0,68,0.00,BKN,,0.00,WeatherDisplay:10.37,2013-08-23 17:21:00,
2013-08-23 13:26:00,89.1,77.1,30.09,East,90,2.4,2.4,68,0.00,BKN,,0.00,WeatherDisplay:10.37,2013-08-23 17:26:00,
2013-08-23 13:31:00,90.5,78.0,30.09,NNE,22,3.5,3.5,67,0.00,BKN,,0.00,WeatherDisplay:10.37,2013-08-23 17:31:00,
2013-08-23 13:36:00,90.7,78.2,30.09,East,90,3.5,3.5,67,0.00,SCT,,0.00,WeatherDisplay:10.37,2013-08-23 17:36:00,
2013-08-23 13:41:00,89.6,77.2,30.09,NE,45,1.4,1.4,67,0.00,SCT,,0.00,WeatherDisplay:10.37,2013-08-23 17:41:00,
2013-08-23 13:46:00,91.0,78.6,30.09,NW,315,2.3,2.4,67,0.00,SCT,,0.00,WeatherDisplay:10.37,2013-08-23 17:46:00,
2013-08-23 13:51:00,92.1,79.6,30.06,SE,135,2.4,2.4,67,0.00,SCT,,0.00,WeatherDisplay:10.37,2013-08-23 17:51:00,
2013-08-23 13:56:00,92.5,79.9,30.06,SW,225,3.5,3.5,67,0.00,SCT,,0.00,WeatherDisplay:10.37,2013-08-23 17:56:00,
2013-08-23 14:01:00,91.9,79.4,30.06,South,180,3.5,3.5,67,0.00,SCT,,0.00,WeatherDisplay:10.37,2013-08-23 18:01:00,
2013-08-23 14:06:00,90.9,78.4,30.09,WNW,292,4.6,4.6,67,0.00,SCT,,0.00,WeatherDisplay:10.37,2013-08-23 18:06:00,
2013-08-23 14:11:00,88.7,76.8,30.09,NE,45,2.6,2.6,68,0.00,SCT,,0.00,WeatherDisplay:10.37,2013-08-23 18:11:00,
2013-08-23 14:16:00,91.2,78.7,30.09,East,90,1.2,0.0,67,0.00,SCT,,0.00,WeatherDisplay:10.37,2013-08-23 18:16:00,
2013-08-23 14:21:00,91.9,79.4,30.06,NE,45,2.3,2.4,67,0.00,SCT,,0.00,WeatherDisplay:10.37,2013-08-23 18:21:00,
2013-08-23 14:26:00,92.5,79.9,30.06,NE,45,3.3,3.3,67,0.00,SCT,,0.00,WeatherDisplay:10.37,2013-08-23 18:26:00,
2013-08-23 14:31:00,91.9,79.4,30.06,East,90,2.3,2.3,67,0.00,SCT,,0.00,WeatherDisplay:10.37,2013-08-23 18:31:00,
2013-08-23 14:36:00,91.8,79.2,30.06,West,270,4.6,4.6,67,0.00,SCT,,0.00,WeatherDisplay:10.37,2013-08-23 18:36:00,
2013-08-23 14:41:00,92.3,79.8,30.06,North,0,3.5,3.5,67,0.00,SCT,,0.00,WeatherDisplay:10.37,2013-08-23 18:41:00,
2013-08-23 14:46:00,91.8,79.2,30.06,West,270,2.4,2.4,67,0.00,SCT,,0.00,WeatherDisplay:10.37,2013-08-23 18:46:00,
2013-08-23 14:51:00,93.4,80.3,30.03,NE,45,2.6,2.6,66,0.00,SCT,,0.00,WeatherDisplay:10.37,2013-08-23 18:51:00,
2013-08-23 14:56:00,93.6,80.5,30.03,West,270,2.3,2.3,66,0.00,SCT,,0.00,WeatherDisplay:10.37,2013-08-23 18:56:00,
2013-08-23 15:01:00,92.8,80.3,30.03,North,0,5.8,5.8,67,0.00,SCT,,0.00,WeatherDisplay:10.37,2013-08-23 19:01:00,
2013-08-23 15:06:00,93.6,80.5,30.06,North,0,3.5,3.5,66,0.00,SCT,,0.00,WeatherDisplay:10.37,2013-08-23 19:06:00,
2013-08-23 15:11:00,93.7,80.7,30.06,NW,315,3.3,3.3,66,0.00,SCT,,0.00,WeatherDisplay:10.37,2013-08-23 19:11:00,
2013-08-23 15:16:00,92.5,79.9,30.06,NE,45,3.5,3.5,67,0.00,SCT,,0.00,WeatherDisplay:10.37,2013-08-23 19:16:00,
2013-08-23 15:21:00,91.9,79.4,30.06,East,90,4.7,4.7,67,0.00,SCT,,0.00,WeatherDisplay:10.37,2013-08-23 19:21:00,
2013-08-23 15:26:00,92.3,79.8,30.06,NNW,338,3.5,3.5,67,0.00,SCT,,0.00,WeatherDisplay:10.37,2013-08-23 19:26:00,
2013-08-23 15:31:00,91.6,79.1,30.06,NNE,22,5.8,5.8,67,0.00,SCT,,0.00,WeatherDisplay:10.37,2013-08-23 19:31:00,
2013-08-23 15:36:00,93.0,80.4,30.06,WNW,292,1.6,2.0,67,0.00,SCT,,0.00,WeatherDisplay:10.37,2013-08-23 19:36:00,
2013-08-23 15:41:00,93.4,80.3,30.06,North,0,4.6,4.6,66,0.00,SCT,,0.00,WeatherDisplay:10.37,2013-08-23 19:41:00,
2013-08-23 15:46:00,93.9,80.8,30.06,SE,135,1.6,1.6,66,0.00,SCT,,0.00,WeatherDisplay:10.37,2013-08-23 19:46:00,
2013-08-23 15:51:00,93.0,80.4,30.06,West,270,4.0,4.0,67,0.00,SCT,,0.00,WeatherDisplay:10.37,2013-08-23 19:51:00,
2013-08-23 15:56:00,92.5,79.9,30.06,NE,45,3.5,3.5,67,0.00,SCT,,0.00,WeatherDisplay:10.37,2013-08-23 19:56:00,
2013-08-23 16:01:00,92.5,79.9,30.06,NW,315,1.2,1.2,67,0.00,SCT,,0.00,WeatherDisplay:10.37,2013-08-23 20:01:00,
2013-08-23 16:06:00,93.6,80.5,30.06,ENE,68,2.3,2.3,66,0.00,SCT,,0.00,WeatherDisplay:10.37,2013-08-23 20:06:00,
2013-08-23 16:11:00,93.7,80.7,30.06,North,0,3.3,3.3,66,0.00,SCT,,0.00,WeatherDisplay:10.37,2013-08-23 20:11:00,
2013-08-23 16:16:00,92.1,79.6,30.06,North,0,3.5,3.5,67,0.00,SCT,,0.00,WeatherDisplay:10.37,2013-08-23 20:16:00,
2013-08-23 16:21:00,90.3,77.9,30.03,North,0,4.0,4.0,67,0.00,SCT,,0.00,WeatherDisplay:10.37,2013-08-23 20:21:00,
2013-08-23 16:26:00,89.4,77.5,30.03,NNW,338,3.5,3.5,68,0.00,SCT,,0.00,WeatherDisplay:10.37,2013-08-23 20:26:00,
2013-08-23 16:31:00,91.2,78.7,30.03,WNW,292,2.3,2.4,67,0.00,SCT,,0.00,WeatherDisplay:10.37,2013-08-23 20:31:00,
2013-08-23 16:36:00,91.8,79.2,30.03,WSW,248,3.5,3.5,67,0.00,SCT,,0.00,WeatherDisplay:10.37,2013-08-23 20:36:00,
2013-08-23 16:41:00,90.5,78.0,30.03,NNW,338,2.4,2.9,67,0.00,SCT,,0.00,WeatherDisplay:10.37,2013-08-23 20:41:00,
2013-08-23 16:46:00,90.1,77.7,30.03,East,90,2.3,2.3,67,0.00,SCT,,0.00,WeatherDisplay:10.37,2013-08-23 20:46:00,
2013-08-23 16:51:00,91.0,78.6,30.03,NE,45,5.8,5.8,67,0.00,SCT,,0.00,WeatherDisplay:10.37,2013-08-23 20:51:00,
2013-08-23 16:56:00,91.0,78.6,30.03,East,90,3.5,3.5,67,0.00,SCT,,0.00,WeatherDisplay:10.37,2013-08-23 20:56:00,
2013-08-23 17:01:00,90.0,77.5,30.03,NNW,338,2.3,2.3,67,0.00,SCT,,0.00,WeatherDisplay:10.37,2013-08-23 21:01:00,
2013-08-23 17:06:00,89.2,77.3,30.03,ENE,68,5.8,5.8,68,0.00,SCT,,0.00,WeatherDisplay:10.37,2013-08-23 21:06:00,
2013-08-23 17:11:00,88.9,76.9,30.03,South,180,3.5,3.5,68,0.00,SCT,,0.00,WeatherDisplay:10.37,2013-08-23 21:11:00,
2013-08-23 17:16:00,89.2,77.3,30.03,SW,225,2.3,2.3,68,0.00,SCT,,0.00,WeatherDisplay:10.37,2013-08-23 21:16:00,
2013-08-23 17:21:00,88.9,76.9,30.03,NE,45,2.3,0.0,68,0.00,SCT,,0.00,WeatherDisplay:10.37,2013-08-23 21:21:00,
2013-08-23 17:26:00,88.0,76.1,30.03,NNE,22,1.6,1.6,68,0.00,SCT,,0.00,WeatherDisplay:10.37,2013-08-23 21:26:00,
2013-08-23 17:31:00,88.9,76.9,30.03,West,270,2.3,2.3,68,0.00,SCT,,0.00,WeatherDisplay:10.37,2013-08-23 21:31:00,
2013-08-23 17:36:00,89.6,77.2,30.03,NNE,22,3.1,3.1,67,0.00,FEW,,0.00,WeatherDisplay:10.37,2013-08-23 21:36:00,
2013-08-23 17:41:00,89.6,77.2,30.03,NW,315,3.5,3.5,67,0.00,FEW,,0.00,WeatherDisplay:10.37,2013-08-23 21:41:00,
2013-08-23 17:46:00,91.0,78.6,30.03,NNW,338,2.3,2.3,67,0.00,FEW,,0.00,WeatherDisplay:10.37,2013-08-23 21:46:00,
2013-08-23 17:50:00,88.9,76.9,30.06,NE,45,3.5,3.5,68,0.00,FEW,,0.00,WeatherDisplay:10.37,2013-08-23 21:50:00,
2013-08-23 17:55:00,88.3,76.4,30.06,West,270,2.3,2.3,68,0.00,FEW,,0.00,WeatherDisplay:10.37,2013-08-23 21:55:00,
2013-08-23 18:00:00,87.6,75.7,30.06,West,270,2.3,2.3,68,0.00,FEW,,0.00,WeatherDisplay:10.37,2013-08-23 22:00:00,
2013-08-23 18:05:00,87.8,75.9,30.06,NE,45,4.6,4.6,68,0.00,FEW,,0.00,WeatherDisplay:10.37,2013-08-23 22:05:00,
2013-08-23 18:10:00,87.8,75.9,30.06,NE,45,3.5,3.5,68,0.00,FEW,,0.00,WeatherDisplay:10.37,2013-08-23 22:10:00,
2013-08-23 18:15:00,87.1,75.2,30.06,NE,45,1.4,1.4,68,0.00,FEW,,0.00,WeatherDisplay:10.37,2013-08-23 22:15:00,
2013-08-23 18:20:00,86.9,75.1,30.06,NE,45,1.2,1.2,68,0.00,FEW,,0.00,WeatherDisplay:10.37,2013-08-23 22:20:00,
2013-08-23 18:25:00,86.2,74.4,30.06,NNE,22,0.0,0.0,68,0.00,FEW,,0.00,WeatherDisplay:10.37,2013-08-23 22:25:00,
2013-08-23 18:30:00,86.7,74.9,30.06,West,270,1.2,1.2,68,0.00,FEW,,0.00,WeatherDisplay:10.37,2013-08-23 22:30:00,
2013-08-23 18:35:00,87.1,75.2,30.06,North,0,1.6,1.6,68,0.00,FEW,,0.00,WeatherDisplay:10.37,2013-08-23 22:35:00,
2013-08-23 18:40:00,87.1,75.2,30.06,NE,45,2.4,2.4,68,0.00,FEW,,0.00,WeatherDisplay:10.37,2013-08-23 22:40:00,
2013-08-23 18:45:00,86.7,74.9,30.06,NW,315,3.5,3.5,68,0.00,FEW,,0.00,WeatherDisplay:10.37,2013-08-23 22:45:00,
2013-08-23 18:48:00,69.8,29.2,30.12,West,270,0.0,0.0,22,0.00,CLR,CLR,0.00,WeatherDisplay:10.37,2013-08-23 22:48:00,
2013-08-23 18:50:00,86.2,74.4,30.06,North,0,4.6,4.6,68,0.00,FEW,,0.00,WeatherDisplay:10.37,2013-08-23 22:50:00,
2013-08-23 18:55:00,86.4,74.5,30.06,SW,225,0.0,0.0,68,0.00,FEW,,0.00,WeatherDisplay:10.37,2013-08-23 22:55:00,
2013-08-23 19:00:00,86.2,74.4,30.06,SE,135,2.3,2.3,68,0.00,FEW,,0.00,WeatherDisplay:10.37,2013-08-23 23:00:00,
2013-08-23 19:03:00,69.6,30.1,30.12,West,270,0.0,0.0,23,0.00,CLR,CLR,0.00,WeatherDisplay:10.37,2013-08-23 23:03:00,
2013-08-23 19:05:00,85.8,74.0,30.06,SW,225,1.2,1.2,68,0.00,FEW,,0.00,WeatherDisplay:10.37,2013-08-23 23:05:00,
2013-08-23 19:10:00,85.5,73.7,30.06,West,270,1.2,0.0,68,0.00,FEW,,0.00,WeatherDisplay:10.37,2013-08-23 23:10:00,
2013-08-23 19:16:00,84.9,73.2,30.06,NE,45,2.3,0.0,68,0.00,FEW,,0.00,WeatherDisplay:10.37,2013-08-23 23:16:00,
2013-08-23 19:18:00,69.4,30.0,30.09,West,270,0.0,0.0,23,0.00,CLR,CLR,0.00,WeatherDisplay:10.37,2013-08-23 23:18:00,
2013-08-23 19:21:00,84.4,72.7,30.03,West,270,3.5,3.5,68,0.00,CLR,,0.00,WeatherDisplay:10.37,2013-08-23 23:21:00,
2013-08-23 19:26:00,84.0,72.8,30.03,North,0,2.6,2.6,69,0.00,CLR,,0.00,WeatherDisplay:10.37,2013-08-23 23:26:00,
2013-08-23 19:31:00,83.5,72.2,30.03,NE,45,1.2,1.2,69,0.00,CLR,,0.00,WeatherDisplay:10.37,2013-08-23 23:31:00,
2013-08-23 19:33:00,69.4,31.0,30.09,NNE,16,0.0,0.0,24,0.00,CLR,CLR,0.00,WeatherDisplay:10.37,2013-08-23 23:33:00,
2013-08-23 19:36:00,83.1,71.9,30.06,SW,225,1.2,0.0,69,0.00,CLR,,0.00,WeatherDisplay:10.37,2013-08-23 23:36:00,
2013-08-23 19:41:00,82.8,71.5,30.06,West,270,1.2,0.0,69,0.00,CLR,,0.00,WeatherDisplay:10.37,2013-08-23 23:41:00,
2013-08-23 19:46:00,82.4,71.2,30.06,East,90,1.2,0.0,69,0.00,CLR,,0.00,WeatherDisplay:10.37,2013-08-23 23:46:00,
2013-08-23 19:48:00,69.1,32.7,30.09,NNE,22,0.0,0.0,26,0.00,CLR,CLR,0.00,WeatherDisplay:10.37,2013-08-23 23:48:00,
2013-08-23 19:51:00,82.0,70.9,30.06,NE,45,0.0,0.0,69,0.00,CLR,,0.00,WeatherDisplay:10.37,2013-08-23 23:51:00,
2013-08-23 19:56:00,81.5,70.3,30.06,North,0,1.2,0.0,69,0.00,CLR,,0.00,WeatherDisplay:10.37,2013-08-23 23:56:00,
2013-08-23 20:01:00,81.1,70.0,30.06,NW,315,1.2,0.0,69,0.00,CLR,,0.00,WeatherDisplay:10.37,2013-08-24 00:01:00,
2013-08-23 20:03:00,68.9,33.5,30.12,North,0,0.0,0.0,27,0.00,CLR,CLR,0.00,WeatherDisplay:10.37,2013-08-24 00:03:00,
2013-08-23 20:06:00,80.6,69.5,30.06,East,90,0.0,0.0,69,0.00,SCT,,0.00,WeatherDisplay:10.37,2013-08-24 00:06:00,
2013-08-23 20:12:00,79.7,69.0,30.06,West,270,1.2,1.2,70,0.00,SCT,,0.00,WeatherDisplay:10.37,2013-08-24 00:12:00,
2013-08-23 20:17:00,79.3,68.7,30.06,NW,315,0.0,0.0,70,0.00,SCT,,0.00,WeatherDisplay:10.37,2013-08-24 00:17:00,
2013-08-23 20:18:00,68.7,34.3,30.12,North,4,0.0,0.0,28,0.00,CLR,CLR,0.00,WeatherDisplay:10.37,2013-08-24 00:18:00,
2013-08-23 20:22:00,78.8,68.2,30.06,NW,315,0.0,0.0,70,0.00,SCT,,0.00,WeatherDisplay:10.37,2013-08-24 00:22:00,
2013-08-23 20:27:00,78.4,67.8,30.06,NW,315,0.0,0.0,70,0.00,SCT,,0.00,WeatherDisplay:10.37,2013-08-24 00:27:00,
2013-08-23 20:32:00,78.1,67.5,30.03,NW,315,0.0,0.0,70,0.00,SCT,,0.00,WeatherDisplay:10.37,2013-08-24 00:32:00,
2013-08-23 20:33:00,68.7,35.2,30.09,NNE,32,0.0,0.0,29,0.00,CLR,CLR,0.00,WeatherDisplay:10.37,2013-08-24 00:33:00,
2013-08-23 20:37:00,77.9,67.3,30.03,NW,315,0.0,0.0,70,0.00,SCT,,0.00,WeatherDisplay:10.37,2013-08-24 00:37:00,
2013-08-23 20:42:00,77.7,67.2,30.03,NW,315,0.0,0.0,70,0.00,SCT,,0.00,WeatherDisplay:10.37,2013-08-24 00:42:00,
2013-08-23 20:47:00,77.5,67.0,30.03,NW,315,0.0,0.0,70,0.00,SCT,,0.00,WeatherDisplay:10.37,2013-08-24 00:47:00,
2013-08-23 20:48:00,68.7,36.0,30.12,North,0,0.0,0.0,30,0.00,CLR,CLR,0.00,WeatherDisplay:10.37,2013-08-24 00:48:00,
2013-08-23 20:52:00,77.4,66.8,30.03,NW,315,0.0,0.0,70,0.00,SCT,,0.00,WeatherDisplay:10.37,2013-08-24 00:52:00,
2013-08-23 20:57:00,77.0,66.5,30.03,NW,315,0.0,0.0,70,0.00,SCT,,0.00,WeatherDisplay:10.37,2013-08-24 00:57:00,
2013-08-23 21:02:00,76.8,66.3,30.06,NW,315,0.0,0.0,70,0.00,CLR,,0.00,WeatherDisplay:10.37,2013-08-24 01:02:00,
2013-08-23 21:03:00,68.5,36.7,30.12,NNE,27,0.0,0.0,31,0.00,CLR,CLR,0.00,WeatherDisplay:10.37,2013-08-24 01:03:00,
2013-08-23 21:07:00,76.6,66.1,30.06,NW,315,0.0,0.0,70,0.00,CLR,,0.00,WeatherDisplay:10.37,2013-08-24 01:07:00,
2013-08-23 21:12:00,76.5,65.9,30.06,NW,315,0.0,0.0,70,0.00,CLR,,0.00,WeatherDisplay:10.37,2013-08-24 01:12:00,
2013-08-23 21:17:00,76.3,65.8,30.06,NW,315,0.0,0.0,70,0.00,CLR,,0.00,WeatherDisplay:10.37,2013-08-24 01:17:00,
2013-08-23 21:18:00,68.4,37.3,30.12,NNW,329,0.0,0.0,32,0.00,CLR,CLR,0.00,WeatherDisplay:10.37,2013-08-24 01:18:00,
2013-08-23 21:22:00,75.9,65.4,30.06,NW,315,0.0,0.0,70,0.00,CLR,,0.00,WeatherDisplay:10.37,2013-08-24 01:22:00,
2013-08-23 21:27:00,75.6,65.1,30.06,NW,315,0.0,0.0,70,0.00,CLR,,0.00,WeatherDisplay:10.37,2013-08-24 01:27:00,
2013-08-23 21:32:00,75.2,64.7,30.09,NW,315,0.0,0.0,70,0.00,CLR,,0.00,WeatherDisplay:10.37,2013-08-24 01:32:00,
2013-08-23 21:33:00,68.2,37.2,30.12,NW,315,0.0,0.0,32,0.00,CLR,CLR,0.00,WeatherDisplay:10.37,2013-08-24 01:33:00,
2013-08-23 21:37:00,74.8,64.8,30.09,NW,315,0.0,0.0,71,0.00,CLR,,0.00,WeatherDisplay:10.37,2013-08-24 01:37:00,
2013-08-23 21:42:00,74.5,64.5,30.09,NW,315,0.0,0.0,71,0.00,CLR,,0.00,WeatherDisplay:10.37,2013-08-24 01:42:00,
2013-08-23 21:47:00,74.3,64.3,30.09,NW,315,0.0,0.0,71,0.00,CLR,,0.00,WeatherDisplay:10.37,2013-08-24 01:47:00,
2013-08-23 21:48:00,68.2,38.0,30.12,NW,315,0.0,0.0,33,0.00,CLR,CLR,0.00,WeatherDisplay:10.37,2013-08-24 01:48:00,
2013-08-23 21:52:00,74.1,64.1,30.09,NW,315,0.0,0.0,71,0.00,CLR,,0.00,WeatherDisplay:10.37,2013-08-24 01:52:00,
2013-08-23 21:57:00,73.9,63.9,30.09,NW,315,0.0,0.0,71,0.00,CLR,,0.00,WeatherDisplay:10.37,2013-08-24 01:57:00,
2013-08-23 22:02:00,73.6,63.6,30.12,NW,315,0.0,0.0,71,0.00,CLR,,0.00,WeatherDisplay:10.37,2013-08-24 02:02:00,
2013-08-23 22:03:00,68.0,37.8,30.12,NE,34,0.0,1.0,33,0.00,CLR,CLR,0.00,WeatherDisplay:10.37,2013-08-24 02:03:00,
2013-08-23 22:07:00,73.6,63.6,30.12,NW,315,0.0,0.0,71,0.00,CLR,,0.00,WeatherDisplay:10.37,2013-08-24 02:07:00,
2013-08-23 22:12:00,73.4,63.4,30.12,NW,315,0.0,0.0,71,0.00,CLR,,0.00,WeatherDisplay:10.37,2013-08-24 02:12:00,
2013-08-23 22:17:00,73.2,63.2,30.09,NW,315,0.0,0.0,71,0.00,CLR,,0.00,WeatherDisplay:10.37,2013-08-24 02:17:00,
2013-08-23 22:18:00,67.8,37.6,30.12,NNE,22,0.0,0.0,33,0.00,CLR,CLR,0.00,WeatherDisplay:10.37,2013-08-24 02:18:00,
2013-08-23 22:22:00,73.2,63.2,30.09,East,90,0.0,0.0,71,0.00,CLR,,0.00,WeatherDisplay:10.37,2013-08-24 02:22:00,
2013-08-23 22:27:00,72.9,62.9,30.09,East,90,0.0,0.0,71,0.00,CLR,,0.00,WeatherDisplay:10.37,2013-08-24 02:27:00,
2013-08-23 22:32:00,72.9,62.9,30.12,West,270,0.0,0.0,71,0.00,CLR,,0.00,WeatherDisplay:10.37,2013-08-24 02:32:00,
2013-08-23 22:33:00,67.5,38.1,30.12,NNE,22,0.0,0.0,34,0.00,CLR,CLR,0.00,WeatherDisplay:10.37,2013-08-24 02:33:00,
2013-08-23 22:37:00,72.7,62.7,30.12,West,270,0.0,0.0,71,0.00,CLR,,0.00,WeatherDisplay:10.37,2013-08-24 02:37:00,
2013-08-23 22:42:00,72.3,62.4,30.12,West,270,0.0,0.0,71,0.00,CLR,,0.00,WeatherDisplay:10.37,2013-08-24 02:42:00,
2013-08-23 22:47:00,72.1,62.2,30.12,West,270,0.0,0.0,71,0.00,CLR,,0.00,WeatherDisplay:10.37,2013-08-24 02:47:00,
2013-08-23 22:48:00,67.1,37.8,30.12,NNE,22,0.0,0.0,34,0.00,CLR,CLR,0.00,WeatherDisplay:10.37,2013-08-24 02:48:00,
2013-08-23 22:52:00,71.8,61.9,30.12,West,270,0.0,0.0,71,0.00,CLR,,0.00,WeatherDisplay:10.37,2013-08-24 02:52:00,
2013-08-23 22:57:00,71.6,61.7,30.12,West,270,0.0,0.0,71,0.00,CLR,,0.00,WeatherDisplay:10.37,2013-08-24 02:57:00,
2013-08-23 23:02:00,71.2,61.7,30.12,West,270,0.0,0.0,72,0.00,CLR,,0.00,WeatherDisplay:10.37,2013-08-24 03:02:00,
2013-08-23 23:03:00,67.1,38.5,30.12,NNE,22,0.0,0.0,35,0.00,CLR,CLR,0.00,WeatherDisplay:10.37,2013-08-24 03:03:00,
2013-08-23 23:07:00,71.1,61.6,30.12,West,270,0.0,0.0,72,0.00,CLR,,0.00,WeatherDisplay:10.37,2013-08-24 03:07:00,
2013-08-23 23:12:00,70.9,62.2,30.12,West,270,0.0,0.0,74,0.00,CLR,,0.00,WeatherDisplay:10.37,2013-08-24 03:12:00,
2013-08-23 23:17:00,70.7,62.0,30.12,West,270,0.0,0.0,74,0.00,CLR,,0.00,WeatherDisplay:10.37,2013-08-24 03:17:00,
2013-08-23 23:18:00,66.9,39.1,30.15,NNE,22,0.0,1.0,36,0.00,CLR,CLR,0.00,WeatherDisplay:10.37,2013-08-24 03:18:00,
2013-08-23 23:22:00,70.5,61.8,30.12,West,270,0.0,0.0,74,0.00,CLR,,0.00,WeatherDisplay:10.37,2013-08-24 03:22:00,
2013-08-23 23:27:00,70.3,61.7,30.12,West,270,0.0,0.0,74,0.00,CLR,,0.00,WeatherDisplay:10.37,2013-08-24 03:27:00,
2013-08-23 23:32:00,70.2,62.6,30.12,West,270,0.0,0.0,77,0.00,CLR,,0.00,WeatherDisplay:10.37,2013-08-24 03:32:00,
2013-08-23 23:33:00,66.7,38.9,30.12,NNE,20,0.0,0.0,36,0.00,CLR,CLR,0.00,WeatherDisplay:10.37,2013-08-24 03:33:00,
2013-08-23 23:37:00,70.0,62.4,30.12,West,270,0.0,0.0,77,0.00,CLR,,0.00,WeatherDisplay:10.37,2013-08-24 03:37:00,
2013-08-23 23:48:00,66.4,40.0,30.12,NNE,13,0.0,0.0,38,0.00,CLR,CLR,0.00,WeatherDisplay:10.37,2013-08-24 03:48:00,